Location: Unspecified
(0.0000°N, 0.0000°E)
Time: 18:19:01
(UTC+00:00)

Daily predictions for brighter satellites

Satellite Brightness Start Highest point End
(mag) Time Altitude Azimuth Time Altitude Azimuth Time Altitude Azimuth
GPS 2-04 Rocket1 2.7 18:11:05 10° NW 18:14:52 53° NE 18:18:28 10° ESE
Meteor 1-13 Rocket 4.4 18:12:46 10° S 18:18:17 77° W 18:23:53 10° N
Cosmos 1461 3.5 18:16:00 10° NNW 18:19:58 61° WSW 18:24:04 10° SSE
ATLAS 2AS CENTAUR R/B 4.0 18:15:34 10° NNE 18:20:21 18° ENE 18:24:53 10° ESE
SEDSat Delta rocket 2.9 18:18:52 10° NW 18:22:49 57° NE 18:26:59 10° ESE
COSMOS 2406 3.3 18:22:52 10° NNW 18:28:36 86° WSW 18:34:23 10° SSE
Cosmos 1340 3.9 18:29:39 10° SSE 18:32:40 23° E 18:35:08 13° NE
Meteor 1-23 Rocket 4.3 18:27:40 10° S 18:33:27 64° E 18:39:07 10° NNE
XTE 4.4 18:34:58 10° W 18:37:37 28° NNW 18:39:39 14° NNE
Cosmos 1975 2.8 18:33:48 10° N 18:37:49 89° E 18:41:50 10° S
Cosmos 494 Rocket 4.2 18:33:47 10° N 18:38:51 48° ENE 18:43:54 10° SSE
ARIANE 3 DEB 4.2 18:36:30 10° WSW 18:39:56 25° S 18:42:08 10° SE
Cosmos 1484 Rocket 3.1 18:36:40 10° S 18:40:31 67° WSW 18:44:18 10° NNW
OAO 2 Rocket 3.3 18:37:19 10° SW 18:42:31 88° SE 18:46:21 18° NE
BLOCK DM-SL 4.2 18:35:58 10° W 18:43:07 67° S 18:50:18 10° ESE
Ariane H10+ 3.5 18:40:00 10° WSW 18:43:16 48° S 18:57:16 10° E
Ariane H10-3 2.4 18:35:57 10° W 18:46:13 68° S 18:49:04 14° ESE
Intercosmos 25 3.8 18:43:01 10° NNE 18:46:36 50° E 18:51:53 10° SSE
Intelsat 5-3 Rocket 2.8 18:44:04 10° NW 18:49:24 39° NNE 18:50:43 26° ENE
Ariane 42L R/B 3.9 18:48:01 10° WSW 18:51:43 25° SSW 18:53:39 11° SE
Meteor 2-4 Rocket 4.1 18:46:12 10° SSW 18:51:44 65° W 18:57:06 10° N
Meteor 1-29 3.1 18:49:46 17° NNE 18:52:16 55° E 18:55:42 10° S
Cosmos 1025 Rocket 4.0 18:49:52 10° SSW 18:54:03 49° W 18:58:14 10° N
Meteor 2-21 Rocket 4.4 18:48:23 10° N 18:54:28 68° E 19:00:31 10° SSE
Cosmos 2251 Rocket 3.6 18:52:14 10° NNW 18:57:32 81° WSW 19:02:47 10° S
Milstar 3 4.5 18:52:12 10° SSW 18:59:05 33° SE 19:06:53 16° E
Meteor 2-16 Rocket 4.4 18:53:37 10° N 18:59:34 58° E 19:05:33 10° SSE
Resurs 01 Rocket 2.7 18:56:45 10° SE 18:59:37 24° E 18:59:37 24° E
Cosmos 1666 4.5 19:03:56 18° ESE 19:03:56 18° ESE 19:05:24 10° SE
ARIANE 44L R/B 2.0 19:04:29 10° W 19:09:16 70° S 19:09:34 61° SE
Cosmos 2369 Rocket 2.2 19:04:27 10° S 19:09:59 61° ESE 19:12:51 28° NE
FREGAT/IRIS 2.5 19:07:19 10° S 19:10:26 89° ENE 19:11:46 31° N
Cosmos 1743 2.5 19:06:41 10° N 19:10:31 82° E 19:14:21 10° S
SAR-Lupe-4 4.2 19:08:04 10° SSE 19:10:39 37° ESE 19:10:39 37° ESE
Spelda 3.8 18:52:47 10° W 19:13:51 64° N 19:16:05 35° ENE
Cosmos 1515 4.2 19:11:07 10° SSE 19:14:16 40° ESE 19:14:16 40° ESE
Cosmos 1535 Rocket 4.3 19:11:29 10° N 19:17:40 77° E 19:23:47 10° S
Cosmos 1934 Rocket 4.0 19:14:55 10° N 19:21:05 61° E 19:27:21 10° SSE
Meteor 2-9 Rocket 4.2 19:25:56 49° ENE 19:26:19 50° E 19:31:26 10° SSE
ALOS 2.9 19:22:12 10° SSE 19:25:26 37° ESE 19:25:26 37° ESE
DELTA 2 R/B (1) 4.4 19:25:48 10° SSW 19:30:52 35° SE 19:31:25 34° SE
Cosmos 1420 Rocket 4.0 19:25:40 10° S 19:30:53 61° ESE 19:31:23 58° ENE
Centaur AC-119 3.9 19:29:10 10° SSW 19:29:49 17° SSW 19:29:49 17° SSW
Spot 2 Rocket 3.4 19:26:38 10° SSE 19:31:42 67° ENE 19:32:53 50° NNE
ARIANE 5 R/B 4.2 19:33:38 10° WSW 19:38:31 67° SSE 20:36:15 10° E
Cosmos 1626 Rocket 3.7 19:36:13 10° S 19:40:02 67° S 19:40:02 67° S
Cosmos 1821 Rocket 4.4 19:37:55 10° NNW 19:43:51 58° W 19:49:54 10° S
FengYun 1-2 T 4.1 19:39:37 10° SSE 19:45:13 90° E 19:47:34 37° NNW
Longmarch 3A Rocket 3.9 19:47:48 10° SW 19:50:35 19° S 19:50:35 19° S
Cosmos 1000 Rocket 4.4 19:46:49 10° S 19:52:27 66° SE 19:52:27 66° SE
Cosmos 1605 Rocket 3.8 19:53:50 76° NNE 19:54:19 84° E 20:00:27 10° S
ARIANE 5 R/B 3.9 19:52:49 10° WNW 19:55:16 36° NW 19:55:16 36° NW
FENGYUN 3A 3.6 19:51:23 10° S 19:56:48 79° WSW 19:56:53 79° W
Ariane H10 4.4 19:58:16 10° W 19:59:47 23° W 19:59:47 23° W
BLOCK DM-SL R/B 3.8 19:44:49 10° W 20:01:37 87° N 20:02:23 72° E
Cosmos 1943 Rocket 2.5 19:56:54 10° SSW 20:01:25 58° S 20:01:25 58° S
ARIANE 5 R/B 4.2 20:04:30 10° WSW 20:09:11 33° SSW 20:09:11 33° SSW
ATLAS 2AS CENTAUR R/B 3.5 20:04:12 10° NW 20:11:11 48° WSW 20:17:33 10° S
CZ-3C R/B 4.2 20:24:52 10° SSW 20:25:52 10° SSW 20:26:44 10° SSW
ARIANE 5 R/B 4.4 20:21:27 10° WSW 20:26:34 82° S 20:27:27 74° ESE
ARIANE 5 R/B 4.4 20:21:27 10° WSW 20:26:35 82° S 20:27:28 74° ESE
ARIANE 5 R/B 4.4 20:21:27 10° WSW 20:26:35 82° S 20:27:29 74° ESE
Maqsat-H 3.6 20:24:42 10° W 20:32:43 38° SSW 20:32:43 38° SSW
Resurs 01 Rocket 4.5 20:34:23 10° SW 20:36:34 14° WSW 20:37:13 13° W
